Station MDRM1 - Mt. Desert Rock, ME Image indicating link to RSS feed of recent meteorological observations for station MDRM1


Conditions at MDRM1 as of
(10:00 am EDT)
1400 GMT on 04/20/2024:
     

Click on the graph icon in the table below to see a time series plot of the last five days of that observation.

5-day plot - Wind Direction Wind Direction (WDIR): S ( 180 deg true )
5-day plot - Wind Speed Wind Speed (WSPD): 16 kts
5-day plot - Wind Gust Wind Gust (GST): 17 kts
5-day plot - Atmospheric Pressure Atmospheric Pressure (PRES):29.93 in
5-day plot - Pressure Tendency Pressure Tendency (PTDY):-0.03 in ( Falling )
5-day plot - Air Temperature Air Temperature (ATMP): 43.0 °F
5-day plot - Dew Point Dew Point (DEWP): 43.0 °F
5-day plot - Wind Chill Wind Chill (CHILL): 34.7 °F
5-day plot - Wind Speed at 10 Meters Wind Speed at 10 meters (WSPD10M): 16 kts
5-day plot - Wind Speed at 20 Meters Wind Speed at 20 meters (WSPD20M): 16 kts
5-day plot -  Wind Speed, Wind Gust and Atmospheric Pressure Combined plot of Wind Speed, Gust, and Air Pressure
Continuous Winds
TIME
(EDT)
5-day plot - Wind Direction WDIR 5-day plot - Wind Speed WSPD
10:00 amS ( 183 deg ) 16 kts
9:50 amS ( 182 deg ) 16 kts
9:40 amS ( 178 deg ) 16 kts
9:30 amS ( 176 deg ) 17 kts
9:20 amSSE ( 168 deg ) 16 kts
9:10 amSSE ( 163 deg ) 17 kts
 
Peak gust during the measurement hour
TIME
(EDT)
5-day plot - Gust Direction GDR 5-day plot - Gust Speed GST
9:26 amS ( 180 deg ) 19 kts
Previous observations
TIME
(EDT)
5-day plot - Wind Direction
WDIR
 
5-day plot - Wind Speed
WSPD
kts
5-day plot - Wind Gust
GST
kts
5-day plot - Wave Height
WVHT
ft
5-day plot - Dominant Wave Period
DPD
sec
5-day plot - Average Wave Period
APD
sec
5-day plot - Mean Wave Direction
MWD
 
5-day plot - Atmospheric Pressure
PRES
in
5-day plot - Pressure Tendency
PTDY
in
5-day plot - Air Temperature
ATMP
°F
5-day plot - Water Temperature
WTMP
°F
5-day plot - Dew Point
DEWP
°F
5-day plot - Salinity
SAL
psu
5-day plot - Visibility
VIS
nmi
5-day plot - Tide (above MLLW)
TIDE
ft
2024-04-20 09:00 amSSE 16 17----29.93-0.05 43.0- 43.0---
2024-04-20 08:00 amSSE 21 23----29.95-0.02 43.3- 43.3---
2024-04-20 07:00 amSSE 19 21----29.96-0.04 43.3- 43.0---
2024-04-20 06:00 amSSE 18 20----29.97-0.04 43.2- 43.2---
2024-04-20 05:00 amSSE 16 18----29.97-0.05 43.2- 43.0---
2024-04-20 04:00 am S 16 18----29.99-0.05 43.3- 42.4---
2024-04-20 03:00 am S 16 17----30.01-0.04 43.5- 43.0---
2024-04-20 02:00 am S 16 17----30.02-0.05 43.5- 42.8---
2024-04-20 01:00 am S 15 16----30.04-0.04 43.5- 43.2---
2024-04-20 12:00 am S 14 16----30.05-0.04 43.5- 43.3---
2024-04-19 11:00 pm S 14 14----30.07-0.02 43.7- 42.8---
2024-04-19 10:00 pmSSE 15 16----30.08-0.01 43.9- 40.8---
2024-04-19 09:00 pmSSE 15 16----30.09-0.02 43.7- 39.9---
2024-04-19 08:00 pmSSE 13 14----30.09-0.02 43.7- 38.3---
2024-04-19 07:00 pmSSE 12 13----30.09-0.06 43.7- 38.7---
2024-04-19 06:00 pm S 11 12----30.11-0.03 44.2- 39.4---
2024-04-19 05:00 pmSSE 10 11----30.11-0.05 45.1- 39.6---
2024-04-19 04:00 pm S 10 10----30.15-0.04 47.7- 40.1---
2024-04-19 03:00 pm SE 9 10----30.14-0.06 46.6- 37.4---
2024-04-19 02:00 pm SE 9 10----30.17-0.04 46.6- 38.1---
2024-04-19 01:00 pm SE 11 11----30.18-0.04 46.2- 38.8---
2024-04-19 12:00 pm SE 10 10----30.20-0.03 46.0- 39.7---
2024-04-19 11:00 am E 9 10----30.21-0.01 45.1- 41.5---
2024-04-19 10:00 amENE 8 9----30.23+0.00 44.4- 37.8---